Back to catalog

ONEWEB-0351

AliveCommunicationsPO
NORAD 49215·PAYLOAD·🇬🇧 United Kingdom

Launched Sep 14, 2021 from Baikonur Cosmodrome

Loading…

Next Passes (next 24 hours)

TLE

FreshSource: CelesTrak SupGP

Epoch: Sep 14, 2026, 14:22 UTC

1 49215C 21083AF  26257.59913611 -.00003024  00000+0 -74456-2 0  2577
2 49215  87.9141 256.6051 0001623  74.3268  38.6835 13.20774379    17

Track ONEWEB-0351 in real time with AllMySat

Download on the App Store